When you browse on this site, cookies collect data to enhance your experience and personalize the content and advertising you see.
Visit our Privacy Policy to learn more. By continuing to use the site, you agree to this use of cookies and data.
  • In Hungary
  • List of Countries
  • For 7 days
  • Water Temperature
  • Weather Map
  • News
  • Weather Widgets
  • user-avatar
    Login

    Hourly Weather Kolomac

    Today, 22 September, Sunday

    Time Temperature Precipitation Wind Pressure Humidity
    00:00 +12°C° 0 mm 2 mps 761 mmHg 92%
    01:00 +12°C° 0 mm 2 mps 761 mmHg 93%
    02:00 +12°C° 0 mm 2 mps 760 mmHg 92%
    03:00 +10°C° 0 mm 2 mps 760 mmHg 92%
    04:00 +10°C° 0 mm 2 mps 760 mmHg 92%
    05:00 +12°C° 0 mm 2 mps 760 mmHg 90%
    06:00 +12°C° 0 mm 2 mps 759 mmHg 88%
    07:00 +12°C° 0 mm 2 mps 759 mmHg 86%
    08:00 +14°C° 0 mm 2 mps 759 mmHg 77%
    09:00 +17°C° 0 mm 2 mps 759 mmHg 69%
    10:00 +19°C° 0 mm 2 mps 759 mmHg 60%
    11:00 +20°C° 0 mm 2 mps 759 mmHg 56%
    12:00 +21°C° 0 mm 2 mps 758 mmHg 51%
    13:00 +23°C° 0 mm 1 mps 758 mmHg 47%
    14:00 +23°C° 0 mm 2 mps 758 mmHg 48%
    15:00 +23°C° 0 mm 2 mps 757 mmHg 50%
    16:00 +23°C° 0 mm 2 mps 757 mmHg 51%
    17:00 +20°C° 0 mm 2 mps 757 mmHg 59%
    18:00 +18°C° 0 mm 3 mps 757 mmHg 66%
    19:00 +16°C° 0 mm 3 mps 757 mmHg 73%
    20:00 +14°C° 0 mm 3 mps 757 mmHg 75%
    21:00 +14°C° 0 mm 3 mps 757 mmHg 77%
    22:00 +13°C° 0 mm 4 mps 757 mmHg 80%
    23:00 +13°C° 0 mm 4 mps 757 mmHg 79%

    Tomorrow, 23 September, Monday

    Time Temperature Precipitation Wind Pressure Humidity
    00:00 +13°C° 0 mm 4 mps 758 mmHg 78%
    01:00 +12°C° 0 mm 4 mps 758 mmHg 77%
    02:00 +12°C° 0 mm 4 mps 758 mmHg 79%
    03:00 +12°C° 0 mm 4 mps 758 mmHg 82%
    04:00 +11°C° 0 mm 4 mps 757 mmHg 84%
    05:00 +12°C° 0 mm 4 mps 758 mmHg 84%
    06:00 +12°C° 0 mm 4 mps 758 mmHg 84%
    07:00 +12°C° 0 mm 4 mps 758 mmHg 83%
    08:00 +14°C° 0 mm 4 mps 758 mmHg 77%
    09:00 +16°C° 0 mm 5 mps 758 mmHg 70%
    10:00 +17°C° 0 mm 5 mps 759 mmHg 63%
    11:00 +19°C° 0 mm 4 mps 758 mmHg 59%
    12:00 +20°C° 0 mm 4 mps 758 mmHg 55%
    13:00 +22°C° 0 mm 4 mps 758 mmHg 50%
    14:00 +21°C° 0 mm 4 mps 758 mmHg 53%
    15:00 +21°C° 0 mm 4 mps 758 mmHg 55%
    16:00 +21°C° 0 mm 4 mps 758 mmHg 58%
    17:00 +19°C° 0 mm 4 mps 758 mmHg 66%
    18:00 +17°C° 0 mm 4 mps 758 mmHg 73%
    19:00 +15°C° 0 mm 4 mps 758 mmHg 80%
    20:00 +14°C° 0 mm 4 mps 758 mmHg 83%
    21:00 +14°C° 0 mm 4 mps 758 mmHg 85%
    22:00 +13°C° 0 mm 4 mps 758 mmHg 88%
    23:00 +13°C° 0 mm 4 mps 758 mmHg 89%

    Day after tomorrow, 24 September, Tuesday

    Time Temperature Precipitation Wind Pressure Humidity
    00:00 +12°C° 0 mm 4 mps 758 mmHg 90%
    01:00 +12°C° 0 mm 3 mps 758 mmHg 91%
    02:00 +11°C° 0 mm 3 mps 757 mmHg 91%
    03:00 +11°C° 0 mm 3 mps 757 mmHg 92%
    04:00 +11°C° 0 mm 3 mps 757 mmHg 93%
    05:00 +11°C° 0 mm 3 mps 757 mmHg 91%
    06:00 +11°C° 0 mm 3 mps 757 mmHg 90%
    07:00 +11°C° 0 mm 3 mps 756 mmHg 88%
    08:00 +13°C° 0 mm 3 mps 756 mmHg 82%
    09:00 +16°C° 0 mm 3 mps 756 mmHg 75%
    10:00 +17°C° 0 mm 3 mps 756 mmHg 68%
    11:00 +18°C° 0 mm 3 mps 756 mmHg 67%
    12:00 +19°C° 0 mm 3 mps 756 mmHg 66%
    13:00 +19°C° 0 mm 2 mps 755 mmHg 65%
    14:00 +19°C° 0 mm 2 mps 755 mmHg 65%
    15:00 +19°C° 0 mm 2 mps 754 mmHg 65%
    16:00 +19°C° 0 mm 2 mps 754 mmHg 66%
    17:00 +18°C° 0 mm 2 mps 754 mmHg 69%
    18:00 +18°C° 0 mm 1 mps 754 mmHg 73%
    19:00 +16°C° 0 mm 1 mps 753 mmHg 77%
    20:00 +16°C° 0.1 mm 2 mps 753 mmHg 79%
    21:00 +16°C° 0.1 mm 2 mps 753 mmHg 81%
    22:00 +15°C° 0.1 mm 2 mps 753 mmHg 83%
    23:00 +15°C° 0.4 mm 2 mps 753 mmHg 87%

    25 September, Wednesday

    Time Temperature Precipitation Wind Pressure Humidity
    00:00 +15°C° 0.4 mm 1 mps 752 mmHg 91%
    01:00 +15°C° 0.4 mm 1 mps 752 mmHg 95%
    02:00 +14°C° 0 mm 1 mps 752 mmHg 95%
    03:00 +14°C° 0 mm 1 mps 752 mmHg 96%
    04:00 +14°C° 0 mm 1 mps 751 mmHg 96%
    05:00 +14°C° 0 mm 1 mps 751 mmHg 96%
    06:00 +14°C° 0 mm 1 mps 751 mmHg 95%
    07:00 +14°C° 0 mm 1 mps 751 mmHg 94%
    08:00 +15°C° 0 mm 1 mps 751 mmHg 89%
    09:00 +16°C° 0 mm 1 mps 751 mmHg 83%
    10:00 +19°C° 0 mm 1 mps 751 mmHg 78%
    11:00 +19°C° 0.3 mm 1 mps 751 mmHg 75%
    12:00 +20°C° 0.3 mm 1 mps 751 mmHg 73%
    13:00 +19°C° 0.3 mm 2 mps 750 mmHg 71%
    14:00 +18°C° 0.7 mm 2 mps 750 mmHg 74%
    15:00 +18°C° 0.7 mm 2 mps 750 mmHg 76%
    16:00 +18°C° 0.7 mm 2 mps 750 mmHg 79%
    17:00 +17°C° 0.1 mm 2 mps 751 mmHg 82%
    18:00 +16°C° 0.1 mm 1 mps 751 mmHg 86%
    19:00 +15°C° 0.1 mm 1 mps 751 mmHg 89%
    20:00 +15°C° 0 mm 1 mps 751 mmHg 90%
    21:00 +15°C° 0 mm 1 mps 751 mmHg 91%
    22:00 +15°C° 0 mm 1 mps 751 mmHg 91%
    23:00 +15°C° 0.1 mm 2 mps 752 mmHg 92%

    26 September, Thursday

    Time Temperature Precipitation Wind Pressure Humidity
    00:00 +14°C° 0.1 mm 2 mps 752 mmHg 92%
    01:00 +13°C° 0.1 mm 3 mps 752 mmHg 92%
    02:00 +14°C° 0.1 mm 2 mps 752 mmHg 93%
    03:00 +14°C° 0.1 mm 2 mps 752 mmHg 93%
    04:00 +14°C° 0.1 mm 2 mps 752 mmHg 94%
    05:00 +14°C° 0.1 mm 2 mps 752 mmHg 94%
    06:00 +13°C° 0.1 mm 3 mps 753 mmHg 94%
    07:00 +13°C° 0.1 mm 3 mps 753 mmHg 94%
    08:00 +14°C° 0.1 mm 3 mps 753 mmHg 91%
    09:00 +16°C° 0.1 mm 3 mps 753 mmHg 87%
    10:00 +16°C° 0.1 mm 3 mps 754 mmHg 84%
    11:00 +17°C° 0.3 mm 3 mps 754 mmHg 80%
    12:00 +17°C° 0.3 mm 3 mps 754 mmHg 77%
    13:00 +18°C° 0.3 mm 3 mps 754 mmHg 73%
    14:00 +18°C° 0.1 mm 2 mps 754 mmHg 73%
    15:00 +18°C° 0.1 mm 2 mps 754 mmHg 73%
    16:00 +18°C° 0.1 mm 2 mps 754 mmHg 72%
    17:00 +18°C° 0 mm 1 mps 754 mmHg 77%
    18:00 +16°C° 0 mm 1 mps 754 mmHg 82%
    19:00 +15°C° 0 mm 1 mps 754 mmHg 86%
    20:00 +15°C° 0 mm 1 mps 755 mmHg 86%
    21:00 +15°C° 0 mm 1 mps 755 mmHg 86%
    22:00 +15°C° 0 mm 2 mps 755 mmHg 86%
    23:00 +14°C° 0 mm 2 mps 755 mmHg 88%

    27 September, Friday

    Time Temperature Precipitation Wind Pressure Humidity
    00:00 +14°C° 0 mm 2 mps 755 mmHg 89%
    01:00 +14°C° 0 mm 2 mps 755 mmHg 90%
    02:00 +14°C° 0 mm 2 mps 755 mmHg 91%
    03:00 +14°C° 0 mm 2 mps 755 mmHg 92%
    04:00 +14°C° 0 mm 2 mps 755 mmHg 93%
    05:00 +14°C° 0 mm 2 mps 755 mmHg 94%
    06:00 +13°C° 0 mm 3 mps 755 mmHg 94%
    07:00 +13°C° 0 mm 3 mps 755 mmHg 94%
    08:00 +14°C° 0.1 mm 3 mps 755 mmHg 93%
    09:00 +14°C° 0.1 mm 4 mps 755 mmHg 92%
    10:00 +15°C° 0.1 mm 4 mps 755 mmHg 90%
    11:00 +15°C° 0.2 mm 4 mps 755 mmHg 90%
    12:00 +15°C° 0.2 mm 4 mps 754 mmHg 89%
    13:00 +17°C° 0.2 mm 4 mps 754 mmHg 89%
    14:00 +17°C° 0.1 mm 4 mps 754 mmHg 88%
    15:00 +17°C° 0.1 mm 4 mps 753 mmHg 88%
    16:00 +17°C° 0.1 mm 4 mps 753 mmHg 88%
    17:00 +15°C° 0.4 mm 4 mps 753 mmHg 90%
    18:00 +15°C° 0.4 mm 4 mps 753 mmHg 92%
    19:00 +14°C° 0.4 mm 4 mps 753 mmHg 94%
    20:00 +14°C° 0.5 mm 4 mps 753 mmHg 93%
    21:00 +14°C° 0.5 mm 4 mps 753 mmHg 92%
    22:00 +14°C° 0.5 mm 4 mps 753 mmHg 91%
    23:00 +14°C° 0 mm 4 mps 753 mmHg 91%
    Show more